Terminal Aerodrome Forecast
Issued by NWS Duluth, MN

Home | Current Version | Previous Version | Text Only | Print | Product List | Glossary On
Versions: 1 2 3 4 5 6 7 8 9 10 11 12 13 14 15 16 17 18 19 20 21 22 23 24 25 26 27 28 29 30 31 32 33 34 35 36 37 38 39
107
FTUS43 KDLH 071601 AAD
TAFDLH
TAF AMD
KDLH 071601Z 0716/0812 27012KT 3SM -SN OVC010
      TEMPO 0716/0718 6SM -SN
     FM071800 28012G20KT 3SM -SN BLSN OVC010
     FM072200 30015G24KT 3SM -SN BLSN OVC014
     FM080200 32016G28KT 5SM -SN BLSN OVC020=

USA.gov is the U.S. government's official web portal to all federal, state and local government web resources and services.